Location: *
(33.8649°S, 62.1526°E)
Time: 12:04:08
(UTC+00:00)

Centaur D AC-28 - Pass Details

Date: 17 January 2021
Orbit: 672 x 36382 km, 27.9° (Epoch: 02 March)

Event Time Altitude Azimuth Distance (km) Brightness Sun altitude
Exits shadow 23:29:05 28° 311° (NW) 1,368 2.7 -16.6°
Maximum altitude 23:30:18 34° 345° (NNW) 1,139 2.5 -16.4°
Drops below altitude 10° 23:33:56 10° 54° (NE) 2,209 4.6 -15.8°
Sets 23:36:39 0° 64° (ENE) 3,552 5.8 -15.3°
